星链-4293 (STARLINK-4293 )

导读

STARLINK-4293是美国太空探索技术公司SpaceX星链星座的成员卫星,于北京时间2022年7月7日发射,归属星链Group 4-16任务批次。 星链星座旨在通过低轨卫星网络为全球提供高速低延迟的互联网服务,覆盖偏远无基础设施区域,STARLINK-4293运行于近地轨道,承担卫星互联网信号转发任务,助力星链全球通信网络的构建扩展。

基本信息
目录编号:
52989
目录名称:
STARLINK-4293
国际标识:
2022-076D
轨道中心:
EARTH
卫星名称:
星链-4293
卫星全名:
星链-4293 (STARLINK-4293 )
卫星状态:
在轨 (已飞行1528 天)
发射日期:
2022-07-07 UTC
国别 :
美国 (US)
星等 :
--
该卫星已列入 空间交会检测服务 Space Conjunction Data Service (SCDS) ,当前飞行风险评估等级: 无高风险
轨道信息
数据来源 国际轨道数据
星历时间: 2026-09-12T12:00:02+0800
6小时前
查看轨道信息
半长轴: 6668.41km
偏心率: 0.0002612
轨道倾角: 53.213°
近地点辐角 67.490°
升交点赤经 301.351°
平近点角 171.668°
近地点: 288.531km
远地点: 292.015km
周期: 90.322分钟
每日圈数: 15.942975
详细信息
固有亮度:
5
最大亮度:
2.5
卫星平台:
Starlink v1.5
覆盖范围:
全球
运营商:
太空探索技术公司
运营商所在国:
美国
制造商(研发单位):
太空探索技术公司
制造商所在国:
美国
使用方式:
暂无
卫星简介
星链(Starlink)计划是由太空探索技术公司(SpaceX)提出的一个巨型低轨卫星互联网星座项目,计划在2019年至2024年间在太空搭建由约1.2万颗卫星组成的“星链”网络,其中1584颗将部署在地球上空550千米处的近地轨道,并从2020年开始工作。该卫星仍在工作。
2D轨道图
3D轨道图
轨道高度分析图
轨道倾角分析图
轨道综合分析图
查看轨道综合分析图
与全量物体交会距离演化趋势
与全量物体交会风险概率演化趋势